Powrót do katalogu

STARLINK-34791

AktywnyŁącznośćVLEO
NORAD 65891·PAYLOAD·🇺🇸 United States

Wystrzelony Oct 7, 2025 z Cape Canaveral Space Force Station

Loading…

Następne Przeloty (najbliższe 24 godziny)

TLE

ŚwieżeSource: CelesTrak SupGP

Epoka: Sep 14, 2026, 22:56 UTC

1 65891C 25224K   26257.95604167  .00000005  00000+0  15683-6 0  2574
2 65891  53.1579 211.6202 0001497 107.1255 132.8870 15.34429961    11

Śledź STARLINK-34791 w czasie rzeczywistym z AllMySat

Download on the App Store